User: anonymous   Login
Location: Theydon Bois
(51.6750°N, 0.1050°E)
Time: 19:48:57
(UTC+01:00)
Language:

Cosmos 2219 Rocket - Orbit

View from above orbital plane
View from above orbital plane
View from above satellite
View from above satellite

Ground track
Ground track

The orbit data is extracted from the following two-line orbital elements,

1 22220U 92076B   17296.09795233  .00000227  00000-0  13818-3 0  9990
2 22220  70.9986 150.0044 0010744  75.6200  76.6777 14.16421158288886
Epoch (UTC): 23 October 2017 02:21:03
Eccentricity: 0.0010744
inclination: 70.9986°
perigee height: 830 km
apogee height: 845 km
right ascension of ascending node: 150.0044°
argument of perigee: 75.6200°
revolutions per day: 14.16421158
mean anomaly at epoch: 76.6777°
orbit number at epoch: 28888

The dashed part of the orbit path shows where the satellite is in the earth's shadow,  

DLR